Time,TemperatureF,DewpointF,PressureIn,WindDirection,WindDirectionDegrees,WindSpeedMPH,WindSpeedGustMPH,Humidity,HourlyPrecipIn,Conditions,Clouds,dailyrainin,SoftwareType,DateUTC
2013-05-04 00:01:00,55.9,43.5,30.28,ENE,72,0.0,1.0,63,0.00,,,0.00,WeatherCatV1.15B25,2013-05-04 07:01:00,
2013-05-04 00:06:00,55.8,43.8,30.28,NW,317,3.0,3.0,64,0.00,,,0.00,WeatherCatV1.15B25,2013-05-04 07:06:00,
2013-05-04 00:11:00,55.6,43.6,30.27,WNW,300,2.0,2.0,64,0.00,,,0.00,WeatherCatV1.15B25,2013-05-04 07:11:00,
2013-05-04 00:16:00,55.4,43.4,30.27,WNW,285,1.0,1.0,64,0.00,,,0.00,WeatherCatV1.15B25,2013-05-04 07:16:00,
2013-05-04 00:21:00,55.0,43.9,30.27,WNW,285,1.0,2.0,66,0.00,,,0.00,WeatherCatV1.15B25,2013-05-04 07:21:00,
2013-05-04 00:26:00,54.6,43.9,30.27,WNW,288,1.0,2.0,67,0.00,,,0.00,WeatherCatV1.15B25,2013-05-04 07:26:00,
2013-05-04 00:31:00,54.3,43.6,30.28,NW,308,2.0,2.0,67,0.00,,,0.00,WeatherCatV1.15B25,2013-05-04 07:31:00,
2013-05-04 00:36:00,54.5,43.8,30.27,NW,308,2.0,2.0,67,0.00,,,0.00,WeatherCatV1.15B25,2013-05-04 07:36:00,
2013-05-04 00:41:00,54.7,44.0,30.28,NW,316,2.0,3.0,67,0.00,,,0.00,WeatherCatV1.15B25,2013-05-04 07:41:00,
2013-05-04 00:46:00,55.0,43.9,30.28,NW,318,1.0,2.0,66,0.00,,,0.00,WeatherCatV1.15B25,2013-05-04 07:46:00,
2013-05-04 00:51:00,55.1,43.9,30.28,North,8,3.0,3.0,66,0.00,,,0.00,WeatherCatV1.15B25,2013-05-04 07:51:00,
2013-05-04 00:56:00,55.2,44.0,30.27,NW,325,3.0,3.0,66,0.00,,,0.00,WeatherCatV1.15B25,2013-05-04 07:56:00,
2013-05-04 01:01:00,55.3,43.7,30.27,NNW,335,4.0,4.0,65,0.00,,,0.00,WeatherCatV1.15B25,2013-05-04 08:01:00,
2013-05-04 01:06:00,55.1,43.9,30.27,North,11,3.0,5.0,66,0.00,,,0.00,WeatherCatV1.15B25,2013-05-04 08:06:00,
2013-05-04 01:11:00,54.4,43.7,30.27,North,0,3.0,4.0,67,0.00,,,0.00,WeatherCatV1.15B25,2013-05-04 08:11:00,
2013-05-04 01:16:00,54.1,44.2,30.27,North,6,5.0,5.0,69,0.00,,,0.00,WeatherCatV1.15B25,2013-05-04 08:16:00,
2013-05-04 01:21:00,53.9,44.0,30.27,NE,51,2.0,3.0,69,0.00,,,0.00,WeatherCatV1.15B25,2013-05-04 08:21:00,
2013-05-04 01:26:00,53.4,44.2,30.27,East,88,1.0,1.0,71,0.00,,,0.00,WeatherCatV1.15B25,2013-05-04 08:26:00,
2013-05-04 01:31:00,52.5,44.1,30.27,NE,44,2.0,2.0,73,0.00,,,0.00,WeatherCatV1.15B25,2013-05-04 08:31:00,
2013-05-04 01:36:00,52.2,44.2,30.27,WNW,294,1.0,2.0,74,0.00,,,0.00,WeatherCatV1.15B25,2013-05-04 08:36:00,
2013-05-04 01:41:00,52.3,44.3,30.27,NW,314,1.0,1.0,74,0.00,,,0.00,WeatherCatV1.15B25,2013-05-04 08:41:00,
2013-05-04 01:46:00,52.2,44.5,30.27,NNE,27,1.0,5.0,75,0.00,,,0.00,WeatherCatV1.15B25,2013-05-04 08:46:00,
2013-05-04 01:51:00,52.4,44.7,30.27,North,359,1.0,2.0,75,0.00,,,0.00,WeatherCatV1.15B25,2013-05-04 08:51:00,
2013-05-04 01:56:00,52.3,44.3,30.27,North,357,1.0,1.0,74,0.00,,,0.00,WeatherCatV1.15B25,2013-05-04 08:56:00,
2013-05-04 02:01:00,52.0,44.3,30.27,NNW,340,0.0,2.0,75,0.00,,,0.00,WeatherCatV1.15B25,2013-05-04 09:01:00,
2013-05-04 02:06:00,51.5,44.5,30.27,NNW,339,0.0,1.0,77,0.00,,,0.00,WeatherCatV1.15B25,2013-05-04 09:06:00,
2013-05-04 02:11:00,51.0,44.4,30.27,NNW,345,1.0,2.0,78,0.00,,,0.00,WeatherCatV1.15B25,2013-05-04 09:11:00,
2013-05-04 02:16:00,51.0,44.4,30.27,WNW,288,1.0,1.0,78,0.00,,,0.00,WeatherCatV1.15B25,2013-05-04 09:16:00,
2013-05-04 02:21:00,51.1,44.5,30.27,WNW,285,1.0,1.0,78,0.00,,,0.00,WeatherCatV1.15B25,2013-05-04 09:21:00,
2013-05-04 02:26:00,50.8,44.2,30.27,WNW,285,1.0,1.0,78,0.00,,,0.00,WeatherCatV1.15B25,2013-05-04 09:26:00,
2013-05-04 02:31:00,50.9,44.6,30.27,WNW,301,1.0,3.0,79,0.00,,,0.00,WeatherCatV1.15B25,2013-05-04 09:31:00,
2013-05-04 02:36:00,50.9,44.3,30.26,NW,321,1.0,1.0,78,0.00,,,0.00,WeatherCatV1.15B25,2013-05-04 09:36:00,
2013-05-04 02:41:00,50.6,44.3,30.26,NE,47,1.0,2.0,79,0.00,,,0.00,WeatherCatV1.15B25,2013-05-04 09:41:00,
2013-05-04 02:46:00,50.5,44.2,30.26,NE,47,0.0,0.0,79,0.00,,,0.00,WeatherCatV1.15B25,2013-05-04 09:46:00,
2013-05-04 02:51:00,49.9,44.0,30.26,NE,47,1.0,1.0,80,0.00,,,0.00,WeatherCatV1.15B25,2013-05-04 09:51:00,
2013-05-04 02:56:00,49.6,44.3,30.26,NE,47,1.0,1.0,82,0.00,,,0.00,WeatherCatV1.15B25,2013-05-04 09:56:00,
2013-05-04 03:01:00,49.7,44.4,30.26,ENE,67,1.0,2.0,82,0.00,,,0.00,WeatherCatV1.15B25,2013-05-04 10:01:00,
2013-05-04 03:06:00,49.7,44.1,30.26,ENE,66,1.0,1.0,81,0.00,,,0.00,WeatherCatV1.15B25,2013-05-04 10:06:00,
2013-05-04 03:11:00,49.1,43.8,30.26,NE,44,1.0,2.0,82,0.00,,,0.00,WeatherCatV1.15B25,2013-05-04 10:11:00,
2013-05-04 03:16:00,48.8,43.9,30.26,NE,43,1.0,1.0,83,0.00,,,0.00,WeatherCatV1.15B25,2013-05-04 10:16:00,
2013-05-04 03:21:00,48.5,43.9,30.26,NE,43,1.0,1.0,84,0.00,,,0.00,WeatherCatV1.15B25,2013-05-04 10:21:00,
2013-05-04 03:26:00,48.3,43.7,30.26,NE,43,1.0,1.0,84,0.00,,,0.00,WeatherCatV1.15B25,2013-05-04 10:26:00,
2013-05-04 03:31:00,48.7,44.4,30.26,NE,37,2.0,5.0,85,0.00,,,0.00,WeatherCatV1.15B25,2013-05-04 10:31:00,
2013-05-04 03:36:00,49.5,44.9,30.26,NNE,33,2.0,5.0,84,0.00,,,0.00,WeatherCatV1.15B25,2013-05-04 10:36:00,
2013-05-04 03:41:00,49.9,44.9,30.26,NNE,27,3.0,7.0,83,0.00,,,0.00,WeatherCatV1.15B25,2013-05-04 10:41:00,
2013-05-04 03:46:00,50.0,45.0,30.27,NNE,33,3.0,3.0,83,0.00,,,0.00,WeatherCatV1.15B25,2013-05-04 10:46:00,
2013-05-04 03:51:00,50.1,45.1,30.26,NNE,18,3.0,4.0,83,0.00,,,0.00,WeatherCatV1.15B25,2013-05-04 10:51:00,
2013-05-04 03:56:00,49.9,44.9,30.26,NE,50,2.0,4.0,83,0.00,,,0.00,WeatherCatV1.15B25,2013-05-04 10:56:00,
2013-05-04 04:01:00,49.6,44.7,30.26,NE,50,0.0,2.0,83,0.00,,,0.00,WeatherCatV1.15B25,2013-05-04 11:01:00,
2013-05-04 04:06:00,49.2,44.6,30.26,NE,49,0.0,0.0,84,0.00,,,0.00,WeatherCatV1.15B25,2013-05-04 11:06:00,
2013-05-04 04:11:00,48.7,44.4,30.26,NE,49,1.0,1.0,85,0.00,,,0.00,WeatherCatV1.15B25,2013-05-04 11:11:00,
2013-05-04 04:16:00,48.4,44.4,30.26,ENE,59,1.0,3.0,86,0.00,,,0.00,WeatherCatV1.15B25,2013-05-04 11:16:00,
2013-05-04 04:21:00,48.4,44.4,30.26,NE,40,2.0,2.0,86,0.00,,,0.00,WeatherCatV1.15B25,2013-05-04 11:21:00,
2013-05-04 04:26:00,48.3,44.6,30.26,NNE,18,2.0,2.0,87,0.00,,,0.00,WeatherCatV1.15B25,2013-05-04 11:26:00,
2013-05-04 04:31:00,48.1,44.4,30.26,NNE,15,3.0,3.0,87,0.00,,,0.00,WeatherCatV1.15B25,2013-05-04 11:31:00,
2013-05-04 04:36:00,48.1,44.7,30.26,NNE,27,3.0,4.0,88,0.00,,,0.00,WeatherCatV1.15B25,2013-05-04 11:36:00,
2013-05-04 04:41:00,48.3,44.6,30.25,NNE,32,3.0,4.0,87,0.00,,,0.00,WeatherCatV1.15B25,2013-05-04 11:41:00,
2013-05-04 04:42:00,48.4,44.7,30.25,NNE,27,2.0,4.0,87,0.00,,,0.00,WeatherCatV1.15B25,2013-05-04 11:42:00,
2013-05-04 04:47:00,48.4,44.7,30.25,NE,43,1.0,2.0,87,0.00,,,0.00,WeatherCatV1.15B25,2013-05-04 11:47:00,
2013-05-04 04:52:00,48.3,44.6,30.25,NE,43,0.0,0.0,87,0.00,,,0.00,WeatherCatV1.15B25,2013-05-04 11:52:00,
2013-05-04 04:57:00,47.7,44.0,30.26,SSE,149,0.0,1.0,87,0.00,,,0.00,WeatherCatV1.15B25,2013-05-04 11:57:00,
2013-05-04 05:02:00,47.2,43.8,30.25,SSE,149,0.0,1.0,88,0.00,,,0.00,WeatherCatV1.15B25,2013-05-04 12:02:00,
2013-05-04 05:07:00,46.9,43.8,30.26,SE,141,0.0,1.0,89,0.00,,,0.00,WeatherCatV1.15B25,2013-05-04 12:07:00,
2013-05-04 05:12:00,46.7,43.9,30.26,SE,141,0.0,0.0,90,0.00,,,0.00,WeatherCatV1.15B25,2013-05-04 12:12:00,
2013-05-04 05:17:00,46.4,43.9,30.26,North,356,1.0,2.0,91,0.00,,,0.00,WeatherCatV1.15B25,2013-05-04 12:17:00,
2013-05-04 05:22:00,46.2,43.4,30.26,North,8,1.0,2.0,90,0.00,,,0.00,WeatherCatV1.15B25,2013-05-04 12:22:00,
2013-05-04 05:27:00,46.1,43.6,30.26,North,0,1.0,2.0,91,0.00,,,0.00,WeatherCatV1.15B25,2013-05-04 12:27:00,
2013-05-04 05:32:00,46.2,44.0,30.26,ENE,75,1.0,2.0,92,0.00,,,0.00,WeatherCatV1.15B25,2013-05-04 12:32:00,
2013-05-04 05:36:00,46.1,43.6,30.26,NNE,25,2.0,2.0,91,0.00,,,0.00,WeatherCatV1.15B25,2013-05-04 12:36:00,
2013-05-04 05:41:00,45.9,43.4,30.26,North,353,0.0,1.0,91,0.00,,,0.00,WeatherCatV1.15B25,2013-05-04 12:41:00,
2013-05-04 05:46:00,45.8,43.6,30.25,North,350,0.0,0.0,92,0.00,,,0.00,WeatherCatV1.15B25,2013-05-04 12:46:00,
2013-05-04 05:51:00,46.1,43.9,30.25,North,356,2.0,2.0,92,0.00,,,0.00,WeatherCatV1.15B25,2013-05-04 12:51:00,
2013-05-04 05:56:00,47.0,44.5,30.26,NNE,22,8.0,8.0,91,0.00,,,0.00,WeatherCatV1.15B25,2013-05-04 12:56:00,
2013-05-04 06:01:00,47.9,44.8,30.26,NNE,13,3.0,7.0,89,0.00,,,0.00,WeatherCatV1.15B25,2013-05-04 13:01:00,
2013-05-04 06:06:00,48.1,44.7,30.26,NNE,32,3.0,3.0,88,0.00,,,0.00,WeatherCatV1.15B25,2013-05-04 13:06:00,
2013-05-04 06:11:00,48.2,44.8,30.26,North,4,1.0,2.0,88,0.00,,,0.00,WeatherCatV1.15B25,2013-05-04 13:11:00,
2013-05-04 06:16:00,48.1,44.7,30.26,ENE,64,2.0,2.0,88,0.00,,,0.00,WeatherCatV1.15B25,2013-05-04 13:16:00,
2013-05-04 06:21:00,47.9,44.5,30.26,NNW,332,1.0,1.0,88,0.00,,,0.00,WeatherCatV1.15B25,2013-05-04 13:21:00,
2013-05-04 06:26:00,47.6,44.5,30.27,NW,318,2.0,2.0,89,0.00,,,0.00,WeatherCatV1.15B25,2013-05-04 13:26:00,
2013-05-04 06:31:00,47.6,44.5,30.27,NW,311,0.0,0.0,89,0.00,,,0.00,WeatherCatV1.15B25,2013-05-04 13:31:00,
2013-05-04 06:36:00,47.5,44.4,30.27,WSW,250,0.0,1.0,89,0.00,,,0.00,WeatherCatV1.15B25,2013-05-04 13:36:00,
2013-05-04 06:41:00,47.6,44.5,30.27,WSW,246,0.0,1.0,89,0.00,,,0.00,WeatherCatV1.15B25,2013-05-04 13:41:00,
2013-05-04 06:46:00,48.2,45.1,30.27,WSW,246,0.0,0.0,89,0.00,,,0.00,WeatherCatV1.15B25,2013-05-04 13:46:00,
2013-05-04 06:51:00,48.8,45.4,30.27,West,278,1.0,1.0,88,0.00,,,0.00,WeatherCatV1.15B25,2013-05-04 13:51:00,
2013-05-04 06:56:00,49.2,45.8,30.27,WNW,289,0.0,1.0,88,0.00,,,0.00,WeatherCatV1.15B25,2013-05-04 13:56:00,
2013-05-04 07:01:00,49.6,45.9,30.27,WNW,301,0.0,2.0,87,0.00,,,0.00,WeatherCatV1.15B25,2013-05-04 14:01:00,
2013-05-04 07:06:00,50.5,46.5,30.27,NNE,19,0.0,1.0,86,0.00,,,0.00,WeatherCatV1.15B25,2013-05-04 14:06:00,
2013-05-04 07:11:00,51.7,47.0,30.27,East,89,0.0,1.0,84,0.00,,,0.00,WeatherCatV1.15B25,2013-05-04 14:11:00,
2013-05-04 07:16:00,52.6,47.6,30.27,East,90,0.0,0.0,83,0.00,,,0.00,WeatherCatV1.15B25,2013-05-04 14:16:00,
2013-05-04 07:21:00,54.0,47.6,30.27,East,91,0.0,0.0,79,0.00,,,0.00,WeatherCatV1.15B25,2013-05-04 14:21:00,
2013-05-04 07:26:00,54.3,47.2,30.27,East,96,0.0,0.0,77,0.00,,,0.00,WeatherCatV1.15B25,2013-05-04 14:26:00,
2013-05-04 07:31:00,54.5,47.4,30.27,ESE,109,0.0,0.0,77,0.00,,,0.00,WeatherCatV1.15B25,2013-05-04 14:31:00,
2013-05-04 07:36:00,53.8,47.1,30.27,WNW,290,1.0,3.0,78,0.00,,,0.00,WeatherCatV1.15B25,2013-05-04 14:36:00,
2013-05-04 07:41:00,53.4,47.1,30.27,NW,308,1.0,2.0,79,0.00,,,0.00,WeatherCatV1.15B25,2013-05-04 14:41:00,
2013-05-04 07:46:00,53.5,47.1,30.27,WSW,239,1.0,2.0,79,0.00,,,0.00,WeatherCatV1.15B25,2013-05-04 14:46:00,
2013-05-04 07:51:00,53.7,47.0,30.27,SW,224,3.0,3.0,78,0.00,,,0.00,WeatherCatV1.15B25,2013-05-04 14:51:00,
2013-05-04 07:56:00,54.0,47.0,30.27,West,281,4.0,6.0,77,0.00,,,0.00,WeatherCatV1.15B25,2013-05-04 14:56:00,
2013-05-04 08:01:00,54.1,47.4,30.27,WNW,288,2.0,3.0,78,0.00,,,0.00,WeatherCatV1.15B25,2013-05-04 15:01:00,
2013-05-04 08:06:00,54.4,47.7,30.27,WNW,288,2.0,3.0,78,0.00,,,0.00,WeatherCatV1.15B25,2013-05-04 15:06:00,
2013-05-04 08:11:00,54.8,47.7,30.27,NNW,346,0.0,2.0,77,0.00,,,0.00,WeatherCatV1.15B25,2013-05-04 15:11:00,
2013-05-04 08:16:00,55.5,47.7,30.27,WNW,300,1.0,2.0,75,0.00,,,0.00,WeatherCatV1.15B25,2013-05-04 15:16:00,
2013-05-04 08:21:00,56.4,48.6,30.27,SSW,212,1.0,1.0,75,0.00,,,0.00,WeatherCatV1.15B25,2013-05-04 15:21:00,
2013-05-04 08:26:00,57.0,47.7,30.27,WSW,253,0.0,1.0,71,0.00,,,0.00,WeatherCatV1.15B25,2013-05-04 15:26:00,
2013-05-04 08:31:00,57.1,47.8,30.27,WNW,288,1.0,2.0,71,0.00,,,0.00,WeatherCatV1.15B25,2013-05-04 15:31:00,
2013-05-04 08:36:00,57.3,48.3,30.27,WNW,285,0.0,1.0,72,0.00,,,0.00,WeatherCatV1.15B25,2013-05-04 15:36:00,
2013-05-04 08:41:00,58.1,48.7,30.27,West,276,1.0,3.0,71,0.00,,,0.00,WeatherCatV1.15B25,2013-05-04 15:41:00,
2013-05-04 08:46:00,58.2,48.5,30.27,WNW,295,3.0,5.0,70,0.00,,,0.00,WeatherCatV1.15B25,2013-05-04 15:46:00,
2013-05-04 08:51:00,58.3,47.8,30.27,WNW,298,1.0,3.0,68,0.00,,,0.00,WeatherCatV1.15B25,2013-05-04 15:51:00,
2013-05-04 08:56:00,58.6,48.5,30.27,NW,306,0.0,3.0,69,0.00,,,0.00,WeatherCatV1.15B25,2013-05-04 15:56:00,
2013-05-04 09:01:00,58.8,48.7,30.26,NNE,25,3.0,4.0,69,0.00,,,0.00,WeatherCatV1.15B25,2013-05-04 16:01:00,
2013-05-04 09:06:00,59.2,49.0,30.26,NNW,338,3.0,5.0,69,0.00,,,0.00,WeatherCatV1.15B25,2013-05-04 16:06:00,
2013-05-04 09:11:00,59.5,48.9,30.26,NW,321,3.0,5.0,68,0.00,,,0.00,WeatherCatV1.15B25,2013-05-04 16:11:00,
2013-05-04 09:16:00,60.3,49.3,30.26,SSE,152,1.0,2.0,67,0.00,,,0.00,WeatherCatV1.15B25,2013-05-04 16:16:00,
2013-05-04 09:21:00,60.8,49.0,30.26,SSE,155,4.0,5.0,65,0.00,,,0.00,WeatherCatV1.15B25,2013-05-04 16:21:00,
2013-05-04 09:26:00,61.1,50.1,30.26,WSW,238,1.0,4.0,67,0.00,,,0.00,WeatherCatV1.15B25,2013-05-04 16:26:00,
2013-05-04 09:31:00,61.3,49.8,30.26,SW,222,0.0,4.0,66,0.00,,,0.00,WeatherCatV1.15B25,2013-05-04 16:31:00,
2013-05-04 09:36:00,61.7,49.8,30.26,West,278,0.0,2.0,65,0.00,,,0.00,WeatherCatV1.15B25,2013-05-04 16:36:00,
2013-05-04 09:41:00,61.8,49.1,30.26,WSW,255,1.0,7.0,63,0.00,,,0.00,WeatherCatV1.15B25,2013-05-04 16:41:00,
2013-05-04 09:46:00,61.6,49.3,30.26,West,270,4.0,6.0,64,0.00,,,0.00,WeatherCatV1.15B25,2013-05-04 16:46:00,
2013-05-04 09:51:00,61.8,49.1,30.26,West,270,5.0,8.0,63,0.00,,,0.00,WeatherCatV1.15B25,2013-05-04 16:51:00,
2013-05-04 09:56:00,62.2,49.0,30.26,WSW,257,3.0,7.0,62,0.00,,,0.00,WeatherCatV1.15B25,2013-05-04 16:56:00,
2013-05-04 10:01:00,62.8,49.1,30.25,WNW,300,1.0,6.0,61,0.00,,,0.00,WeatherCatV1.15B25,2013-05-04 17:01:00,
2013-05-04 10:06:00,63.5,49.4,30.25,WNW,295,3.0,4.0,60,0.00,,,0.00,WeatherCatV1.15B25,2013-05-04 17:06:00,
2013-05-04 10:11:00,64.0,48.5,30.25,West,274,3.0,9.0,57,0.00,,,0.00,WeatherCatV1.15B25,2013-05-04 17:11:00,
2013-05-04 10:16:00,64.0,48.5,30.25,North,357,1.0,9.0,57,0.00,,,0.00,WeatherCatV1.15B25,2013-05-04 17:16:00,
2013-05-04 10:21:00,64.3,48.7,30.25,WNW,287,2.0,4.0,57,0.00,,,0.00,WeatherCatV1.15B25,2013-05-04 17:21:00,
2013-05-04 10:26:00,64.9,48.3,30.25,NNE,19,5.0,5.0,55,0.00,,,0.00,WeatherCatV1.15B25,2013-05-04 17:26:00,
2013-05-04 10:31:00,65.5,48.9,30.25,WNW,295,4.0,8.0,55,0.00,,,0.00,WeatherCatV1.15B25,2013-05-04 17:31:00,
2013-05-04 10:36:00,65.9,49.3,30.25,South,184,2.0,4.0,55,0.00,,,0.00,WeatherCatV1.15B25,2013-05-04 17:36:00,
2013-05-04 10:41:00,66.3,48.6,30.24,West,280,1.0,4.0,53,0.00,,,0.00,WeatherCatV1.15B25,2013-05-04 17:41:00,
2013-05-04 10:46:00,66.3,48.1,30.24,NW,314,4.0,6.0,52,0.00,,,0.00,WeatherCatV1.15B25,2013-05-04 17:46:00,
2013-05-04 10:51:00,67.4,50.2,30.24,NE,39,5.0,5.0,54,0.00,,,0.00,WeatherCatV1.15B25,2013-05-04 17:51:00,
2013-05-04 10:56:00,67.9,49.6,30.24,NE,46,2.0,4.0,52,0.00,,,0.00,WeatherCatV1.15B25,2013-05-04 17:56:00,
2013-05-04 11:01:00,68.4,49.6,30.24,NNE,29,3.0,3.0,51,0.00,,,0.00,WeatherCatV1.15B25,2013-05-04 18:01:00,
2013-05-04 11:06:00,68.5,47.5,30.24,WNW,288,4.0,6.0,47,0.00,,,0.00,WeatherCatV1.15B25,2013-05-04 18:06:00,
2013-05-04 11:11:00,68.2,48.3,30.24,WNW,288,2.0,6.0,49,0.00,,,0.00,WeatherCatV1.15B25,2013-05-04 18:11:00,
2013-05-04 11:16:00,68.7,48.2,30.24,NE,41,1.0,5.0,48,0.00,,,0.00,WeatherCatV1.15B25,2013-05-04 18:16:00,
2013-05-04 11:21:00,69.1,48.6,30.23,WNW,283,4.0,4.0,48,0.00,,,0.00,WeatherCatV1.15B25,2013-05-04 18:21:00,
2013-05-04 11:26:00,69.2,48.7,30.23,North,349,4.0,8.0,48,0.00,,,0.00,WeatherCatV1.15B25,2013-05-04 18:26:00,
2013-05-04 11:31:00,69.4,47.7,30.23,WNW,297,5.0,7.0,46,0.00,,,0.00,WeatherCatV1.15B25,2013-05-04 18:31:00,
2013-05-04 11:36:00,69.0,47.3,30.23,NNW,346,11.0,11.0,46,0.00,,,0.00,WeatherCatV1.15B25,2013-05-04 18:36:00,
2013-05-04 11:41:00,69.6,49.0,30.23,WNW,298,5.0,5.0,48,0.00,,,0.00,WeatherCatV1.15B25,2013-05-04 18:41:00,
2013-05-04 11:46:00,69.9,47.0,30.23,NNW,341,4.0,14.0,44,0.00,,,0.00,WeatherCatV1.15B25,2013-05-04 18:46:00,
2013-05-04 11:51:00,70.0,47.7,30.22,NNE,25,4.0,8.0,45,0.00,,,0.00,WeatherCatV1.15B25,2013-05-04 18:51:00,
2013-05-04 11:56:00,70.4,48.0,30.22,NW,325,6.0,6.0,45,0.00,,,0.00,WeatherCatV1.15B25,2013-05-04 18:56:00,
2013-05-04 12:01:00,70.6,47.6,30.22,WNW,285,2.0,12.0,44,0.00,,,0.00,WeatherCatV1.15B25,2013-05-04 19:01:00,
2013-05-04 12:06:00,70.6,47.0,30.22,WNW,301,6.0,13.0,43,0.00,,,0.00,WeatherCatV1.15B25,2013-05-04 19:06:00,
2013-05-04 12:11:00,70.5,46.9,30.21,WNW,291,10.0,13.0,43,0.00,,,0.00,WeatherCatV1.15B25,2013-05-04 19:11:00,
2013-05-04 12:16:00,70.9,47.9,30.21,WNW,301,5.0,8.0,44,0.00,,,0.00,WeatherCatV1.15B25,2013-05-04 19:16:00,
2013-05-04 12:21:00,71.3,48.2,30.21,NW,308,2.0,8.0,44,0.00,,,0.00,WeatherCatV1.15B25,2013-05-04 19:21:00,
2013-05-04 12:26:00,72.0,48.3,30.21,NNW,335,4.0,8.0,43,0.00,,,0.00,WeatherCatV1.15B25,2013-05-04 19:26:00,
2013-05-04 12:31:00,72.6,47.5,30.20,NW,308,7.0,11.0,41,0.00,,,0.00,WeatherCatV1.15B25,2013-05-04 19:31:00,
2013-05-04 12:36:00,72.9,49.1,30.20,NW,305,0.0,3.0,43,0.00,,,0.00,WeatherCatV1.15B25,2013-05-04 19:36:00,
2013-05-04 12:41:00,73.6,49.1,30.20,East,101,0.0,1.0,42,0.00,,,0.00,WeatherCatV1.15B25,2013-05-04 19:41:00,
2013-05-04 12:46:00,74.2,46.9,30.19,NW,316,6.0,10.0,38,0.00,,,0.00,WeatherCatV1.15B25,2013-05-04 19:46:00,
2013-05-04 12:51:00,74.5,46.5,30.19,NNW,333,3.0,5.0,37,0.00,,,0.00,WeatherCatV1.15B25,2013-05-04 19:51:00,
2013-05-04 12:56:00,75.1,47.0,30.19,North,349,8.0,11.0,37,0.00,,,0.00,WeatherCatV1.15B25,2013-05-04 19:56:00,
2013-05-04 13:01:00,75.3,47.2,30.19,NE,39,6.0,7.0,37,0.00,,,0.00,WeatherCatV1.15B25,2013-05-04 20:01:00,
2013-05-04 13:06:00,75.3,46.5,30.18,West,281,4.0,11.0,36,0.00,,,0.00,WeatherCatV1.15B25,2013-05-04 20:06:00,
2013-05-04 13:11:00,74.9,46.9,30.18,WNW,296,5.0,12.0,37,0.00,,,0.00,WeatherCatV1.15B25,2013-05-04 20:11:00,
2013-05-04 13:16:00,74.9,48.3,30.18,WNW,292,6.0,9.0,39,0.00,,,0.00,WeatherCatV1.15B25,2013-05-04 20:16:00,
2013-05-04 13:21:00,75.6,48.2,30.17,NNE,31,4.0,9.0,38,0.00,,,0.00,WeatherCatV1.15B25,2013-05-04 20:21:00,
2013-05-04 13:26:00,75.8,48.4,30.17,NE,36,4.0,8.0,38,0.00,,,0.00,WeatherCatV1.15B25,2013-05-04 20:26:00,
2013-05-04 13:31:00,76.4,45.9,30.17,NE,37,3.0,9.0,34,0.00,,,0.00,WeatherCatV1.15B25,2013-05-04 20:31:00,
2013-05-04 13:36:00,76.3,44.3,30.17,NNE,26,4.0,11.0,32,0.00,,,0.00,WeatherCatV1.15B25,2013-05-04 20:36:00,
2013-05-04 13:41:00,77.0,46.5,30.17,WNW,297,12.0,12.0,34,0.00,,,0.00,WeatherCatV1.15B25,2013-05-04 20:41:00,
2013-05-04 13:47:00,76.5,47.5,30.17,North,352,3.0,12.0,36,0.00,,,0.00,WeatherCatV1.15B25,2013-05-04 20:47:00,
2013-05-04 13:52:00,76.7,47.0,30.16,North,4,3.0,11.0,35,0.00,,,0.00,WeatherCatV1.15B25,2013-05-04 20:52:00,
2013-05-04 13:57:00,77.4,46.0,30.16,ENE,67,8.0,11.0,33,0.00,,,0.00,WeatherCatV1.15B25,2013-05-04 20:57:00,
2013-05-04 14:02:00,76.8,47.8,30.16,NE,41,7.0,18.0,36,0.00,,,0.00,WeatherCatV1.15B25,2013-05-04 21:02:00,
2013-05-04 14:07:00,76.1,46.4,30.15,North,354,6.0,15.0,35,0.00,,,0.00,WeatherCatV1.15B25,2013-05-04 21:07:00,
2013-05-04 14:12:00,75.7,46.1,30.15,NNW,347,11.0,16.0,35,0.00,,,0.00,WeatherCatV1.15B25,2013-05-04 21:12:00,
2013-05-04 14:17:00,76.0,47.8,30.15,NNW,341,10.0,15.0,37,0.00,,,0.00,WeatherCatV1.15B25,2013-05-04 21:17:00,
2013-05-04 14:22:00,76.2,46.5,30.15,NNE,13,18.0,18.0,35,0.00,,,0.00,WeatherCatV1.15B25,2013-05-04 21:22:00,
2013-05-04 14:27:00,76.4,46.7,30.15,NNE,19,4.0,9.0,35,0.00,,,0.00,WeatherCatV1.15B25,2013-05-04 21:27:00,
2013-05-04 14:32:00,76.6,46.1,30.15,North,351,7.0,13.0,34,0.00,,,0.00,WeatherCatV1.15B25,2013-05-04 21:32:00,
2013-05-04 14:37:00,76.8,45.5,30.14,NNE,12,5.0,14.0,33,0.00,,,0.00,WeatherCatV1.15B25,2013-05-04 21:37:00,
2013-05-04 14:42:00,76.8,46.3,30.14,NNW,335,6.0,14.0,34,0.00,,,0.00,WeatherCatV1.15B25,2013-05-04 21:42:00,
2013-05-04 14:47:00,76.5,46.0,30.14,NNW,335,3.0,15.0,34,0.00,,,0.00,WeatherCatV1.15B25,2013-05-04 21:47:00,
2013-05-04 14:52:00,76.3,46.6,30.13,NW,305,5.0,16.0,35,0.00,,,0.00,WeatherCatV1.15B25,2013-05-04 21:52:00,
2013-05-04 14:57:00,76.1,47.9,30.13,NNW,336,5.0,17.0,37,0.00,,,0.00,WeatherCatV1.15B25,2013-05-04 21:57:00,
2013-05-04 15:02:00,76.2,47.3,30.13,WNW,294,3.0,10.0,36,0.00,,,0.00,WeatherCatV1.15B25,2013-05-04 22:02:00,
2013-05-04 15:07:00,76.4,48.2,30.13,WNW,297,8.0,8.0,37,0.00,,,0.00,WeatherCatV1.15B25,2013-05-04 22:07:00,
2013-05-04 15:12:00,76.3,47.4,30.13,NW,307,14.0,14.0,36,0.00,,,0.00,WeatherCatV1.15B25,2013-05-04 22:12:00,
2013-05-04 15:17:00,76.4,48.2,30.13,North,5,2.0,13.0,37,0.00,,,0.00,WeatherCatV1.15B25,2013-05-04 22:17:00,
2013-05-04 15:22:00,76.3,46.6,30.13,North,354,5.0,15.0,35,0.00,,,0.00,WeatherCatV1.15B25,2013-05-04 22:22:00,
2013-05-04 15:27:00,76.4,46.7,30.12,North,358,7.0,18.0,35,0.00,,,0.00,WeatherCatV1.15B25,2013-05-04 22:27:00,
2013-05-04 15:32:00,76.3,46.6,30.13,NNE,16,11.0,11.0,35,0.00,,,0.00,WeatherCatV1.15B25,2013-05-04 22:32:00,
2013-05-04 15:37:00,76.4,46.7,30.12,WNW,291,5.0,12.0,35,0.00,,,0.00,WeatherCatV1.15B25,2013-05-04 22:37:00,
2013-05-04 15:42:00,75.9,46.3,30.12,WNW,291,10.0,13.0,35,0.00,,,0.00,WeatherCatV1.15B25,2013-05-04 22:42:00,
2013-05-04 15:47:00,76.1,46.4,30.12,WNW,302,8.0,8.0,35,0.00,,,0.00,WeatherCatV1.15B25,2013-05-04 22:47:00,
2013-05-04 15:52:00,76.1,45.7,30.11,SW,229,1.0,12.0,34,0.00,,,0.00,WeatherCatV1.15B25,2013-05-04 22:52:00,
2013-05-04 15:57:00,76.3,46.6,30.11,WSW,246,11.0,11.0,35,0.00,,,0.00,WeatherCatV1.15B25,2013-05-04 22:57:00,
2013-05-04 16:02:00,76.2,47.3,30.11,NW,308,6.0,10.0,36,0.00,,,0.00,WeatherCatV1.15B25,2013-05-04 23:02:00,
2013-05-04 16:07:00,76.6,45.3,30.11,NW,321,5.0,11.0,33,0.00,,,0.00,WeatherCatV1.15B25,2013-05-04 23:07:00,
2013-05-04 16:12:00,76.4,45.9,30.11,NNW,348,5.0,15.0,34,0.00,,,0.00,WeatherCatV1.15B25,2013-05-04 23:12:00,
2013-05-04 16:17:00,76.7,47.7,30.11,NW,311,2.0,4.0,36,0.00,,,0.00,WeatherCatV1.15B25,2013-05-04 23:17:00,
2013-05-04 16:22:00,77.2,46.6,30.11,NNW,335,5.0,11.0,34,0.00,,,0.00,WeatherCatV1.15B25,2013-05-04 23:22:00,
2013-05-04 16:27:00,77.2,45.8,30.10,NE,42,2.0,9.0,33,0.00,,,0.00,WeatherCatV1.15B25,2013-05-04 23:27:00,
2013-05-04 16:32:00,76.8,44.7,30.10,North,4,3.0,15.0,32,0.00,,,0.00,WeatherCatV1.15B25,2013-05-04 23:32:00,
2013-05-04 16:37:00,76.5,44.4,30.10,NW,311,6.0,16.0,32,0.00,,,0.00,WeatherCatV1.15B25,2013-05-04 23:37:00,
2013-05-04 16:42:00,76.8,45.5,30.10,NNE,29,12.0,12.0,33,0.00,,,0.00,WeatherCatV1.15B25,2013-05-04 23:42:00,
2013-05-04 16:47:00,76.8,45.5,30.10,NW,322,6.0,19.0,33,0.00,,,0.00,WeatherCatV1.15B25,2013-05-04 23:47:00,
2013-05-04 16:52:00,76.5,44.4,30.09,NW,314,13.0,14.0,32,0.00,,,0.00,WeatherCatV1.15B25,2013-05-04 23:52:00,
2013-05-04 16:57:00,76.1,44.9,30.09,NNE,15,11.0,13.0,33,0.00,,,0.00,WeatherCatV1.15B25,2013-05-04 23:57:00,
2013-05-04 17:02:00,76.0,44.8,30.09,North,4,13.0,13.0,33,0.00,,,0.00,WeatherCatV1.15B25,2013-05-05 00:02:00,
2013-05-04 17:07:00,76.2,45.0,30.09,NNW,335,6.0,8.0,33,0.00,,,0.00,WeatherCatV1.15B25,2013-05-05 00:07:00,
2013-05-04 17:12:00,76.3,43.4,30.09,WNW,300,8.0,10.0,31,0.00,,,0.00,WeatherCatV1.15B25,2013-05-05 00:12:00,
2013-05-04 17:17:00,76.6,43.7,30.09,NNE,15,4.0,8.0,31,0.00,,,0.00,WeatherCatV1.15B25,2013-05-05 00:17:00,
2013-05-04 17:22:00,76.4,42.7,30.09,West,281,7.0,9.0,30,0.00,,,0.00,WeatherCatV1.15B25,2013-05-05 00:22:00,
2013-05-04 17:27:00,76.3,42.6,30.08,NW,307,4.0,11.0,30,0.00,,,0.00,WeatherCatV1.15B25,2013-05-05 00:27:00,
2013-05-04 17:32:00,76.7,43.8,30.08,NNE,13,9.0,9.0,31,0.00,,,0.00,WeatherCatV1.15B25,2013-05-05 00:32:00,
2013-05-04 17:37:00,76.6,42.8,30.08,NW,308,2.0,15.0,30,0.00,,,0.00,WeatherCatV1.15B25,2013-05-05 00:37:00,
2013-05-04 17:42:00,76.2,42.5,30.08,NNW,327,5.0,12.0,30,0.00,,,0.00,WeatherCatV1.15B25,2013-05-05 00:42:00,
2013-05-04 17:47:00,76.0,42.3,30.08,NW,311,5.0,9.0,30,0.00,,,0.00,WeatherCatV1.15B25,2013-05-05 00:47:00,
2013-05-04 17:52:00,76.4,41.8,30.08,WNW,300,3.0,7.0,29,0.00,,,0.00,WeatherCatV1.15B25,2013-05-05 00:52:00,
2013-05-04 17:57:00,76.3,41.7,30.08,North,5,3.0,13.0,29,0.00,,,0.00,WeatherCatV1.15B25,2013-05-05 00:57:00,
2013-05-04 18:02:00,76.9,43.1,30.08,NNE,19,4.0,5.0,30,0.00,,,0.00,WeatherCatV1.15B25,2013-05-05 01:02:00,
2013-05-04 18:07:00,77.3,41.6,30.08,NNE,13,7.0,11.0,28,0.00,,,0.00,WeatherCatV1.15B25,2013-05-05 01:07:00,
2013-05-04 18:12:00,76.6,40.1,30.07,NE,53,7.0,9.0,27,0.00,,,0.00,WeatherCatV1.15B25,2013-05-05 01:12:00,
2013-05-04 18:17:00,76.7,40.2,30.07,North,6,2.0,8.0,27,0.00,,,0.00,WeatherCatV1.15B25,2013-05-05 01:17:00,
2013-05-04 18:22:00,76.6,40.1,30.07,NNE,23,1.0,5.0,27,0.00,,,0.00,WeatherCatV1.15B25,2013-05-05 01:22:00,
2013-05-04 18:27:00,76.1,38.7,30.07,NNW,335,4.0,9.0,26,0.00,,,0.00,WeatherCatV1.15B25,2013-05-05 01:27:00,
2013-05-04 18:32:00,76.1,38.7,30.07,WNW,295,1.0,9.0,26,0.00,,,0.00,WeatherCatV1.15B25,2013-05-05 01:32:00,
2013-05-04 18:37:00,75.9,38.5,30.07,NNW,342,1.0,14.0,26,0.00,,,0.00,WeatherCatV1.15B25,2013-05-05 01:37:00,
2013-05-04 18:42:00,75.6,38.3,30.07,NNE,33,8.0,10.0,26,0.00,,,0.00,WeatherCatV1.15B25,2013-05-05 01:42:00,
2013-05-04 18:47:00,75.6,38.3,30.06,North,356,8.0,15.0,26,0.00,,,0.00,WeatherCatV1.15B25,2013-05-05 01:47:00,
2013-05-04 18:52:00,75.3,38.0,30.06,NNE,18,7.0,16.0,26,0.00,,,0.00,WeatherCatV1.15B25,2013-05-05 01:52:00,
2013-05-04 18:57:00,74.9,38.7,30.06,NNE,27,6.0,12.0,27,0.00,,,0.00,WeatherCatV1.15B25,2013-05-05 01:57:00,
2013-05-04 19:02:00,74.7,38.5,30.06,NNW,340,4.0,14.0,27,0.00,,,0.00,WeatherCatV1.15B25,2013-05-05 02:02:00,
2013-05-04 19:07:00,74.6,38.4,30.06,NNE,28,3.0,8.0,27,0.00,,,0.00,WeatherCatV1.15B25,2013-05-05 02:07:00,
2013-05-04 19:12:00,74.4,39.2,30.06,NNE,29,5.0,9.0,28,0.00,,,0.00,WeatherCatV1.15B25,2013-05-05 02:12:00,
2013-05-04 19:17:00,74.1,38.9,30.06,NNW,336,5.0,10.0,28,0.00,,,0.00,WeatherCatV1.15B25,2013-05-05 02:17:00,
2013-05-04 19:22:00,74.1,38.9,30.06,NW,305,1.0,5.0,28,0.00,,,0.00,WeatherCatV1.15B25,2013-05-05 02:22:00,
2013-05-04 19:27:00,73.9,38.7,30.06,NNE,33,6.0,10.0,28,0.00,,,0.00,WeatherCatV1.15B25,2013-05-05 02:27:00,
2013-05-04 19:32:00,73.8,40.4,30.06,WNW,285,2.0,6.0,30,0.00,,,0.00,WeatherCatV1.15B25,2013-05-05 02:32:00,
2013-05-04 19:37:00,73.6,39.4,30.05,South,188,2.0,9.0,29,0.00,,,0.00,WeatherCatV1.15B25,2013-05-05 02:37:00,
2013-05-04 19:42:00,73.1,38.9,30.05,North,7,5.0,7.0,29,0.00,,,0.00,WeatherCatV1.15B25,2013-05-05 02:42:00,
2013-05-04 19:47:00,72.5,39.3,30.05,ENE,62,5.0,7.0,30,0.00,,,0.00,WeatherCatV1.15B25,2013-05-05 02:47:00,
2013-05-04 19:52:00,72.1,39.8,30.05,NE,39,3.0,5.0,31,0.00,,,0.00,WeatherCatV1.15B25,2013-05-05 02:52:00,
2013-05-04 19:57:00,71.7,40.3,30.05,North,358,5.0,10.0,32,0.00,,,0.00,WeatherCatV1.15B25,2013-05-05 02:57:00,
2013-05-04 20:02:00,71.3,39.9,30.05,NNE,16,6.0,8.0,32,0.00,,,0.00,WeatherCatV1.15B25,2013-05-05 03:02:00,
2013-05-04 20:07:00,70.9,40.3,30.05,NW,321,3.0,3.0,33,0.00,,,0.00,WeatherCatV1.15B25,2013-05-05 03:07:00,
2013-05-04 20:12:00,70.6,40.9,30.05,NNW,341,1.0,6.0,34,0.00,,,0.00,WeatherCatV1.15B25,2013-05-05 03:12:00,
2013-05-04 20:17:00,70.3,41.3,30.06,NNE,29,4.0,9.0,35,0.00,,,0.00,WeatherCatV1.15B25,2013-05-05 03:17:00,
2013-05-04 20:22:00,69.9,41.7,30.06,NE,47,4.0,4.0,36,0.00,,,0.00,WeatherCatV1.15B25,2013-05-05 03:22:00,
2013-05-04 20:27:00,69.6,42.2,30.06,NW,316,4.0,6.0,37,0.00,,,0.00,WeatherCatV1.15B25,2013-05-05 03:27:00,
2013-05-04 20:32:00,69.2,42.5,30.05,NNW,345,1.0,6.0,38,0.00,,,0.00,WeatherCatV1.15B25,2013-05-05 03:32:00,
2013-05-04 20:37:00,69.0,43.0,30.06,North,6,5.0,12.0,39,0.00,,,0.00,WeatherCatV1.15B25,2013-05-05 03:37:00,
2013-05-04 20:42:00,68.8,42.8,30.06,SW,225,3.0,9.0,39,0.00,,,0.00,WeatherCatV1.15B25,2013-05-05 03:42:00,
2013-05-04 20:47:00,68.6,43.3,30.06,NNW,346,1.0,6.0,40,0.00,,,0.00,WeatherCatV1.15B25,2013-05-05 03:47:00,
2013-05-04 20:52:00,68.4,43.1,30.06,NW,314,3.0,5.0,40,0.00,,,0.00,WeatherCatV1.15B25,2013-05-05 03:52:00,
2013-05-04 20:57:00,68.2,43.6,30.06,West,277,1.0,6.0,41,0.00,,,0.00,WeatherCatV1.15B25,2013-05-05 03:57:00,
2013-05-04 21:01:00,68.1,42.9,30.06,WNW,298,2.0,9.0,40,0.00,,,0.00,WeatherCatV1.15B25,2013-05-05 04:01:00,
2013-05-04 21:06:00,67.7,43.8,30.06,SE,131,0.0,2.0,42,0.00,,,0.00,WeatherCatV1.15B25,2013-05-05 04:06:00,
2013-05-04 21:11:00,67.4,43.5,30.06,SSW,195,1.0,2.0,42,0.00,,,0.00,WeatherCatV1.15B25,2013-05-05 04:11:00,
2013-05-04 21:16:00,67.3,42.8,30.06,WNW,300,2.0,3.0,41,0.00,,,0.00,WeatherCatV1.15B25,2013-05-05 04:16:00,
2013-05-04 21:21:00,67.1,43.2,30.06,South,169,3.0,4.0,42,0.00,,,0.00,WeatherCatV1.15B25,2013-05-05 04:21:00,
2013-05-04 21:26:00,66.9,42.4,30.06,SW,217,1.0,5.0,41,0.00,,,0.00,WeatherCatV1.15B25,2013-05-05 04:26:00,
2013-05-04 21:31:00,66.9,42.4,30.06,WSW,245,0.0,3.0,41,0.00,,,0.00,WeatherCatV1.15B25,2013-05-05 04:31:00,
2013-05-04 21:36:00,66.6,41.5,30.06,NW,314,3.0,4.0,40,0.00,,,0.00,WeatherCatV1.15B25,2013-05-05 04:36:00,
2013-05-04 21:41:00,66.5,42.1,30.06,WNW,298,2.0,4.0,41,0.00,,,0.00,WeatherCatV1.15B25,2013-05-05 04:41:00,
2013-05-04 21:46:00,66.4,41.3,30.06,NE,36,3.0,4.0,40,0.00,,,0.00,WeatherCatV1.15B25,2013-05-05 04:46:00,
2013-05-04 21:51:00,66.5,40.8,30.06,NW,319,1.0,7.0,39,0.00,,,0.00,WeatherCatV1.15B25,2013-05-05 04:51:00,
2013-05-04 21:56:00,66.3,40.6,30.06,ENE,78,2.0,5.0,39,0.00,,,0.00,WeatherCatV1.15B25,2013-05-05 04:56:00,
2013-05-04 22:01:00,66.3,40.6,30.06,SE,137,0.0,2.0,39,0.00,,,0.00,WeatherCatV1.15B25,2013-05-05 05:01:00,
2013-05-04 22:06:00,66.1,41.7,30.06,WSW,250,4.0,4.0,41,0.00,,,0.00,WeatherCatV1.15B25,2013-05-05 05:06:00,
2013-05-04 22:11:00,65.8,40.1,30.06,WSW,254,3.0,3.0,39,0.00,,,0.00,WeatherCatV1.15B25,2013-05-05 05:11:00,
2013-05-04 22:16:00,65.5,40.5,30.06,WNW,288,2.0,2.0,40,0.00,,,0.00,WeatherCatV1.15B25,2013-05-05 05:16:00,
2013-05-04 22:21:00,65.3,40.4,30.06,NW,308,3.0,4.0,40,0.00,,,0.00,WeatherCatV1.15B25,2013-05-05 05:21:00,
2013-05-04 22:26:00,65.2,40.3,30.06,NNW,333,3.0,5.0,40,0.00,,,0.00,WeatherCatV1.15B25,2013-05-05 05:26:00,
2013-05-04 22:31:00,64.8,41.2,30.06,South,169,1.0,2.0,42,0.00,,,0.00,WeatherCatV1.15B25,2013-05-05 05:31:00,
2013-05-04 22:36:00,64.2,41.2,30.06,SE,145,3.0,3.0,43,0.00,,,0.00,WeatherCatV1.15B25,2013-05-05 05:36:00,
2013-05-04 22:41:00,63.8,41.5,30.05,West,276,1.0,2.0,44,0.00,,,0.00,WeatherCatV1.15B25,2013-05-05 05:41:00,
2013-05-04 22:46:00,63.3,41.6,30.05,NW,314,3.0,3.0,45,0.00,,,0.00,WeatherCatV1.15B25,2013-05-05 05:46:00,
2013-05-04 22:51:00,63.2,41.5,30.05,NW,314,0.0,0.0,45,0.00,,,0.00,WeatherCatV1.15B25,2013-05-05 05:51:00,
2013-05-04 22:56:00,62.7,41.6,30.05,NW,314,0.0,1.0,46,0.00,,,0.00,WeatherCatV1.15B25,2013-05-05 05:56:00,
2013-05-04 23:01:00,62.0,42.1,30.05,NW,314,1.0,1.0,48,0.00,,,0.00,WeatherCatV1.15B25,2013-05-05 06:01:00,
2013-05-04 23:06:00,61.6,42.2,30.04,NNE,26,2.0,2.0,49,0.00,,,0.00,WeatherCatV1.15B25,2013-05-05 06:06:00,
2013-05-04 23:11:00,61.3,41.4,30.04,NE,53,0.0,1.0,48,0.00,,,0.00,WeatherCatV1.15B25,2013-05-05 06:11:00,
2013-05-04 23:16:00,61.2,41.9,30.04,North,356,2.0,2.0,49,0.00,,,0.00,WeatherCatV1.15B25,2013-05-05 06:16:00,
2013-05-04 23:21:00,61.2,40.8,30.04,NNE,22,2.0,3.0,47,0.00,,,0.00,WeatherCatV1.15B25,2013-05-05 06:21:00,
2013-05-04 23:26:00,61.9,40.9,30.04,North,6,1.0,3.0,46,0.00,,,0.00,WeatherCatV1.15B25,2013-05-05 06:26:00,
2013-05-04 23:31:00,61.6,41.2,30.04,NNW,328,2.0,4.0,47,0.00,,,0.00,WeatherCatV1.15B25,2013-05-05 06:31:00,
2013-05-04 23:36:00,62.2,41.2,30.04,North,6,3.0,4.0,46,0.00,,,0.00,WeatherCatV1.15B25,2013-05-05 06:36:00,
2013-05-04 23:41:00,62.7,41.6,30.03,NNE,13,3.0,4.0,46,0.00,,,0.00,WeatherCatV1.15B25,2013-05-05 06:41:00,
2013-05-04 23:46:00,62.2,42.3,30.04,NNE,32,2.0,2.0,48,0.00,,,0.00,WeatherCatV1.15B25,2013-05-05 06:46:00,
2013-05-04 23:51:00,61.2,42.4,30.03,North,11,2.0,3.0,50,0.00,,,0.00,WeatherCatV1.15B25,2013-05-05 06:51:00,
2013-05-04 23:56:00,60.7,42.5,30.03,NE,44,2.0,3.0,51,0.00,,,0.00,WeatherCatV1.15B25,2013-05-05 06:56:00,